Jamestown, NY

11:58 PM EST on December 09, 2019 (GMT -0500)
Chautauqua County-Jamestown

Weather History for KJHW - October, 2019

Change the Weather History Date:

Friday, October 11, 2019

  Actual Average Record
Temperature  
Mean Temperature 59 °F -  
Max Temperature 70 °F 58 °F 77 °F (1961)
Min Temperature 48 °F 36 °F 20 °F (1986)
Degree Days  
Heating Degree Days 6    
Growing Degree Days 9 (Base 50)    
Moisture  
Dew Point 40 °F    
Average Humidity 56    
Maximum Humidity 83    
Minimum Humidity 26    
Precipitation  
Precipitation 0.00 in - - ()
Sea Level Pressure  
Sea Level Pressure 30.16 in    
Wind  
Wind Speed 5 mph (SSE)    
Max Wind Speed 12 mph    
Max Gust Speed -    
Visibility 10 miles    
Events      
Averages and records for this station are not official NWS values.
T = Trace of Precipitation, MM = Missing Value Source: NWS Daily Summary

Daily Weather History Graph

Daily Weather History Graph

Search for Another Location

Airport or City:

Astronomy

Oct. 11, 2019 Rise Set
Actual Time 7:24 AM EDT 6:42 PM EDT
Civil Twilight 6:56 AM EDT 7:10 PM EDT
Nautical Twilight 6:24 AM EDT 7:42 PM EDT
Astronomical Twilight 5:51 AM EDT 8:14 PM EDT
Moon 6:13 PM EDT (10/11) 4:59 AM EDT (10/11)
Length of Visible Light 12h 13m
Length of Day
11h 17m
Waxing Gibbous, 96% of the Moon is Illuminated
Oct 11
Waxing Gibbous
Oct 13
Full
Oct 21
Last Quarter
Oct 27
New
Nov 4
First Quarter

Hourly Weather History & Observations

Time (EDT) Temp. Dew Point Humidity Pressure Visibility Wind Dir Wind Speed Gust Speed Precip Events Conditions
12:56 AM 52.0 °F 46.0 °F 80% 30.24 in 10.0 mi SSE 3.5 mph - N/A   Clear
1:56 AM 51.1 °F 46.0 °F 83% 30.24 in 10.0 mi SSW 4.6 mph - N/A   Clear
2:56 AM 51.1 °F 46.0 °F 83% 30.22 in 10.0 mi ESE 4.6 mph - N/A   Clear
3:56 AM 52.0 °F 46.0 °F 80% 30.23 in 10.0 mi ESE 5.8 mph - N/A   Clear
4:56 AM 51.1 °F 45.0 °F 80% 30.22 in 10.0 mi ESE 4.6 mph - N/A   Clear
5:56 AM 51.1 °F 44.1 °F 77% 30.23 in 10.0 mi East 3.5 mph - N/A   Clear
6:56 AM 50.0 °F 43.0 °F 77% 30.22 in 10.0 mi Calm Calm - N/A   Clear
7:56 AM 48.0 °F 43.0 °F 83% 30.23 in 10.0 mi SSE 5.8 mph - N/A   Clear
8:56 AM 51.1 °F 44.1 °F 77% 30.24 in 10.0 mi SSE 5.8 mph - N/A   Clear
9:36 AM 53.6 °F 44.6 °F 72% 30.22 in 2.5 mi SSE 5.8 mph - N/A   Haze
9:46 AM 53.6 °F 44.6 °F 72% 30.22 in 10.0 mi SSE 5.8 mph - N/A   Clear
9:56 AM 55.0 °F 44.1 °F 67% 30.24 in 10.0 mi South 6.9 mph - N/A   Clear
10:56 AM 59.0 °F 45.0 °F 60% 30.22 in 10.0 mi South 5.8 mph - N/A   Clear
11:56 AM 63.0 °F 44.1 °F 50% 30.20 in 10.0 mi Variable 5.8 mph - N/A   Clear
12:56 PM 66.0 °F 43.0 °F 43% 30.17 in 10.0 mi South 4.6 mph - N/A   Clear
1:56 PM 68.0 °F 36.0 °F 31% 30.14 in 10.0 mi South 6.9 mph - N/A   Clear
2:56 PM 69.1 °F 34.0 °F 27% 30.13 in 10.0 mi SSE 10.4 mph - N/A   Clear
3:56 PM 70.0 °F 33.1 °F 26% 30.11 in 10.0 mi ESE 11.5 mph - N/A   Clear
4:56 PM 69.1 °F 33.1 °F 26% 30.09 in 10.0 mi Variable 5.8 mph - N/A   Clear
5:56 PM 66.9 °F 32.0 °F 27% 30.08 in 10.0 mi SE 5.8 mph - N/A   Clear
6:56 PM 63.0 °F 28.9 °F 28% 30.08 in 10.0 mi SE 5.8 mph - N/A   Clear
7:56 PM 61.0 °F 28.0 °F 29% 30.06 in 10.0 mi ESE 9.2 mph - N/A   Clear
8:56 PM 57.0 °F 33.1 °F 40% 30.07 in 10.0 mi South 5.8 mph - N/A   Clear
9:56 PM 55.9 °F 33.1 °F 42% 30.06 in 10.0 mi SSE 5.8 mph - N/A   Clear
10:56 PM 53.1 °F 35.1 °F 50% 30.04 in 10.0 mi SE 5.8 mph - N/A   Clear
11:56 PM 54.0 °F 37.9 °F 55% 30.01 in 10.0 mi SSE 6.9 mph - N/A   Partly Cloudy